[[{"header":{"parameterUnit":"m.s-1","parameterCategory":2,"la1":30.2991,"la2":30.254,"lo1":-89.0895,"lo2":-89.0444,"dy":0.0017,"dx":0.0017,"nx":28,"ny":28,"refTime":"2024-06-29T09:00:00:Z","depth":"0","parameterNumber":2,"parameterNumberName":"U-component_of_CURRENTS"},"data":[0,0,0,0,0,0,0,0,0,0,0,0,0,0,0,0,0,0,0,0,0,0,0,0,0,0,0,0,0,0,0,0,0,0,0,0,0,0,0,0,0,0,0,0,0,0,0,0,0,0,0,0,0,0,0,0,0,0,0.15,0.15,0,0.1553,0.1554,0.1554,0.1559,0.1558,0.1558,0.1558,0.1592,0.1593,0.1594,0,0,0,0,0,0,0,0,0,0,0,0,0,0.1459,0.1459,0.15,0.15,0.1501,0.1553,0.1554,0.1554,0.1559,0.1558,0.1558,0.1557,0.1591,0.1593,0.1594,0,0,0,0,0,0,0,0,0,0,0,0,0,0.1489,0.1459,0.1499,0.1511,0.1513,0.1553,0.1554,0.1554,0.1559,0.1558,0.1558,0.1557,0.1591,0.1593,0.1595,0.162,0,0,0.1601,0.1602,0,0,0,0,0,0,0,0,0.1487,0.149,0.1508,0.151,0.1512,0.155,0.1552,0.1576,0.1559,0.154,0.1558,0.1557,0.1577,0.1581,0.159,0.1621,0.1623,0.1601,0.1602,0.1603,0.1603,0,0,0,0,0,0,0,0.1485,0.1489,0.1519,0.1509,0.1512,0.1533,0.1536,0.1557,0.156,0.1542,0.1542,0.1551,0.1578,0.1588,0.1591,0.1623,0.1601,0.1603,0.1604,0.1604,0.1745,0.1748,0,0,0,0,0,0,0.1479,0.1486,0.1518,0.1521,0.15,0.1534,0.1538,0.1537,0.156,0.1564,0.1551,0.1551,0.1585,0.1589,0.1592,0.1686,0.1603,0.1605,0.1606,0.1743,0.1746,0.1748,0,0,0,0,0,0,0.1478,0.1481,0.1515,0.1507,0.1513,0.1535,0.1535,0.1539,0.155,0.1568,0.1571,0.1559,0.1585,0.1589,0.1631,0.1685,0.1606,0.1607,0.174,0.1744,0.1747,0.1834,0,0,0,0,0,0,0.1477,0.148,0.148,0.1506,0.1513,0.1548,0.1536,0.154,0.1557,0.1556,0.1576,0.1578,0.1585,0.1629,0.1633,0.1686,0.1609,0.1736,0.1741,0.1746,0.1828,0.184,0.1851,0,0,0,0,0,0.1475,0.1481,0.1479,0.1483,0.151,0.1549,0.1555,0.1568,0.1558,0.1572,0.1593,0.1578,0.1663,0.1632,0.1637,0.1692,0.1734,0.174,0.1745,0.1823,0.1838,0.1851,0,0,0,0,0,0,0.1466,0.1483,0.1481,0.1492,0.1521,0.155,0.1566,0.157,0.1597,0.1596,0.1604,0.161,0.1669,0.1667,0.1633,0.1748,0.1699,0.1706,0.1756,0.177,0.1782,0.1785,0.1611,0,0,0,0,0,0.1462,0.1474,0.1495,0.1509,0.1518,0.154,0.1556,0.1567,0.1594,0.1604,0.1621,0.165,0.1698,0.172,0.1749,0.1807,0.1822,0.1848,0.186,0.187,0.1878,0.1944,0.1962,0.1767,0.1767,0.1767,0,0,0.1467,0.1478,0.1485,0.1509,0.1527,0.1573,0.1548,0.1578,0.1629,0.1605,0.1671,0.1684,0.172,0.1792,0.1819,0.1798,0.194,0.1877,0.1885,0.1888,0.1952,0.1971,0.1988,0.1771,0.1771,0.177,0,0,0.1505,0.1486,0.1519,0.1543,0.1575,0.1593,0.1601,0.1633,0.1655,0.1714,0.1724,0.1774,0.1823,0.1878,0.1909,0.2002,0.1993,0.2006,0.2074,0.2139,0.2156,0.217,0.2237,0.2256,0.2018,0.2018,0.2018,0,0.1504,0.1549,0.1538,0.1584,0.1615,0.1606,0.1664,0.1692,0.174,0.1773,0.1745,0.1854,0.1877,0.1994,0.2029,0.2031,0.2055,0.2017,0.2154,0.2169,0.2182,0.2246,0.2267,0.2023,0.2022,0.2022,0.2021,0,0.1584,0.1615,0.1636,0.1691,0.1724,0.1763,0.1801,0.1836,0.1847,0.1878,0.1964,0.1994,0.2061,0.2083,0.2085,0.2204,0.2187,0.2155,0.2115,0.2207,0.2269,0.2289,0.203,0.2028,0.2026,0.2025,0,0,0.1587,0.1673,0.1679,0.1723,0.1779,0.1813,0.1897,0.1971,0.2026,0.2059,0.2143,0.2223,0.2211,0.2246,0.2257,0.2312,0.2435,0.2273,0.2274,0.2333,0.2582,0.2674,0.2703,0.2416,0.242,0.2422,0.2595,0,0.1651,0.1751,0.1783,0.1884,0.1936,0.1961,0.2036,0.21,0.214,0.2212,0.2251,0.2322,0.2284,0.2315,0.237,0.2416,0.2487,0.2392,0.2489,0.2493,0.2558,0.273,0.2844,0.3016,0.2614,0.2618,0.262,0,0.1722,0.1779,0.1887,0.1978,0.2,0.2059,0.216,0.2225,0.2319,0.2352,0.242,0.2433,0.2542,0.2471,0.2613,0.2547,0.2578,0.26,0.2606,0.2673,0.2622,0.2857,0.3067,0.2953,0.265,0.2647,0.2645,0,0.1741,0.1848,0.1932,0.1965,0.2069,0.2124,0.2172,0.2267,0.233,0.244,0.2493,0.2588,0.265,0.2701,0.2754,0.2688,0.2892,0.281,0.2928,0.2933,0.3044,0.3054,0.3153,0.2917,0.2917,0.2916,0.2916,0,0.1795,0.1861,0.1942,0.199,0.2073,0.214,0.2235,0.2298,0.2405,0.2501,0.2553,0.2656,0.2704,0.2812,0.2827,0.2977,0.2966,0.2994,0.301,0.3081,0.3092,0.3003,0.286,0.2923,0.2921,0.292,0.2919,0,0.1816,0.1873,0.1965,0.2064,0.2088,0.2144,0.2247,0.2322,0.2419,0.2553,0.2595,0.274,0.2907,0.2971,0.3092,0.3106,0.3149,0.325,0.3338,0.3362,0.3353,0.3211,0.3156,0.3063,0.3428,0.3431,0.3435,0,0.1847,0.1899,0.1988,0.2022,0.2068,0.2147,0.2206,0.2314,0.2407,0.2615,0.2695,0.2891,0.3049,0.3288,0.3401,0.353,0.33,0.3655,0.356,0.3432,0.3282,0.3019,0.2922,0.3743,0.3749,0.3753,0.3757,0,0.189,0.1911,0.1961,0.2026,0.2089,0.2157,0.2258,0.2332,0.2489,0.2626,0.2844,0.2989,0.3296,0.3516,0.3697,0.3776,0.3519,0.3749,0.3608,0.3559,0.3289,0.3182,0.3521,0.3796,0.3792,0.3789,0.3787,0.3785,0.1892,0.1916,0.1963,0.2017,0.208,0.2156,0.2212,0.236,0.2507,0.2717,0.2901,0.3138,0.3498,0.3812,0.3892,0.4062,0.3776,0.3982,0.383,0.3582,0.3464,0.3898,0.4181,0.4179,0.4178,0.4177,0.4175,0,0.1886,0.1903,0.1954,0.2011,0.2054,0.2105,0.2237,0.2308,0.2482,0.2729,0.2939,0.3335,0.3663,0.3925,0.4228,0.4143,0.3955,0.4004,0.3661,0.3566,0.4018,0.4008,0.4279,0.4279,0.4279,0.4279,0.4279,0.4279,0.1881,0.19,0.1918,0.1958,0.1999,0.2061,0.2124,0.2265,0.2444,0.2714,0.2941,0.3129,0.3492,0.3898,0.4043,0.4034,0.3647,0.3582,0.3324,0.3665,0.3649,0.3633,0.3595,0.3775,0.3774,0.2893,0.2886,0.2881]},{"header":{"parameterUnit":"m.s-1","parameterCategory":2,"la1":30.2991,"la2":30.254,"lo1":-89.0895,"lo2":-89.0444,"dy":0.0017,"dx":0.0017,"nx":28,"ny":28,"refTime":"2024-06-29T09:00:00:Z","depth":"0","parameterNumber":3,"parameterNumberName":"V-component_of_CURRENTS"},"data":[0,0,0,0,0,0,0,0,0,0,0,0,0,0,0,0,0,0,0,0,0,0,0,0,0,0,0,0,0,0,0,0,0,0,0,0,0,0,0,0,0,0,0,0,0,0,0,0,0,0,0,0,0,0,0,0,0,0,-0.1397,-0.1398,0,-0.1455,-0.1456,-0.1457,-0.1504,-0.1504,-0.1505,-0.1505,-0.158,-0.1582,-0.1583,0,0,0,0,0,0,0,0,0,0,0,0,0,-0.1332,-0.1333,-0.1397,-0.1398,-0.1399,-0.1455,-0.1456,-0.1457,-0.1504,-0.1504,-0.1505,-0.1505,-0.158,-0.1582,-0.1584,0,0,0,0,0,0,0,0,0,0,0,0,0,-0.1374,-0.1334,-0.1397,-0.1428,-0.1431,-0.1455,-0.1456,-0.1457,-0.1504,-0.1505,-0.1505,-0.1506,-0.1579,-0.1581,-0.1584,-0.1588,0,0,-0.1591,-0.1592,0,0,0,0,0,0,0,0,-0.1371,-0.1376,-0.1423,-0.1426,-0.1429,-0.1472,-0.1461,-0.1502,-0.1504,-0.1478,-0.1505,-0.1506,-0.1544,-0.155,-0.1561,-0.1592,-0.1595,-0.1592,-0.1593,-0.1594,-0.1595,0,0,0,0,0,0,0,-0.1368,-0.1374,-0.1422,-0.1423,-0.1427,-0.144,-0.1447,-0.1469,-0.1509,-0.148,-0.1483,-0.1487,-0.1546,-0.1558,-0.1563,-0.1596,-0.1592,-0.1594,-0.1595,-0.1596,-0.1611,-0.161,0,0,0,0,0,0,-0.1358,-0.1371,-0.142,-0.1423,-0.14,-0.1441,-0.1448,-0.1459,-0.1508,-0.1516,-0.1487,-0.1489,-0.1554,-0.156,-0.1566,-0.1534,-0.1594,-0.1597,-0.1598,-0.1612,-0.161,-0.1609,0,0,0,0,0,0,-0.1356,-0.1362,-0.1418,-0.1397,-0.1405,-0.1441,-0.1453,-0.146,-0.1473,-0.1513,-0.1521,-0.1493,-0.1555,-0.1562,-0.1583,-0.1539,-0.1598,-0.16,-0.1613,-0.1611,-0.161,-0.1497,0,0,0,0,0,0,-0.1354,-0.1361,-0.1358,-0.1397,-0.1406,-0.1415,-0.1452,-0.146,-0.1474,-0.1478,-0.152,-0.1528,-0.1556,-0.1579,-0.1585,-0.1544,-0.1602,-0.1614,-0.1612,-0.161,-0.1502,-0.1491,-0.1482,0,0,0,0,0,-0.1352,-0.1338,-0.1357,-0.1363,-0.1403,-0.1413,-0.1418,-0.1447,-0.1473,-0.1465,-0.1504,-0.1527,-0.1569,-0.158,-0.1588,-0.1546,-0.1615,-0.1613,-0.161,-0.1506,-0.1493,-0.1483,0,0,0,0,0,0,-0.1301,-0.1343,-0.1365,-0.1363,-0.1381,-0.142,-0.1411,-0.1443,-0.1468,-0.1472,-0.1523,-0.1532,-0.1531,-0.156,-0.1571,-0.1545,-0.1592,-0.1591,-0.151,-0.1498,-0.1489,-0.1451,-0.1604,0,0,0,0,0,-0.129,-0.1293,-0.1334,-0.1327,-0.1335,-0.1376,-0.1384,-0.1405,-0.1435,-0.1448,-0.1479,-0.1509,-0.1526,-0.1531,-0.1553,-0.1544,-0.1581,-0.152,-0.151,-0.1501,-0.1476,-0.1512,-0.1503,-0.1601,-0.1601,-0.1601,0,0,-0.1265,-0.1289,-0.1289,-0.1317,-0.1333,-0.1311,-0.1381,-0.1382,-0.1363,-0.1451,-0.1434,-0.1481,-0.152,-0.1506,-0.1506,-0.1524,-0.1495,-0.1498,-0.149,-0.147,-0.1509,-0.1499,-0.1491,-0.1599,-0.16,-0.16,0,0,-0.1188,-0.124,-0.1201,-0.1214,-0.1233,-0.1262,-0.1261,-0.1297,-0.1314,-0.1316,-0.1369,-0.1391,-0.1417,-0.143,-0.1442,-0.1393,-0.1449,-0.1401,-0.1311,-0.1346,-0.1338,-0.1332,-0.1372,-0.137,-0.1388,-0.1387,-0.1387,0,-0.1145,-0.1117,-0.1188,-0.1149,-0.1144,-0.1232,-0.1179,-0.1208,-0.1245,-0.1253,-0.129,-0.1335,-0.1371,-0.1355,-0.1334,-0.1366,-0.1405,-0.1351,-0.1332,-0.1327,-0.1322,-0.1365,-0.1364,-0.1382,-0.1382,-0.1383,-0.1383,0,-0.1034,-0.1012,-0.0991,-0.0976,-0.0985,-0.0959,-0.1011,-0.1025,-0.107,-0.1104,-0.1118,-0.1182,-0.1209,-0.1219,-0.1258,-0.1233,-0.1279,-0.1323,-0.1358,-0.1305,-0.1354,-0.1355,-0.1373,-0.1376,-0.1377,-0.1379,0,0,-0.0897,-0.0909,-0.0889,-0.0868,-0.0894,-0.0889,-0.0873,-0.0884,-0.0883,-0.0932,-0.0925,-0.0959,-0.1027,-0.1045,-0.1107,-0.1126,-0.1131,-0.1196,-0.1201,-0.1227,-0.1215,-0.1219,-0.1221,-0.1179,-0.1178,-0.1178,-0.1265,0,-0.0766,-0.0683,-0.0717,-0.063,-0.0596,-0.0677,-0.066,-0.0696,-0.0753,-0.0778,-0.0858,-0.0883,-0.0953,-0.0977,-0.1004,-0.1113,-0.1128,-0.1103,-0.1269,-0.1273,-0.1276,-0.122,-0.111,-0.1175,-0.1267,-0.1267,-0.1267,0,-0.0609,-0.0586,-0.0491,-0.0488,-0.0477,-0.0448,-0.047,-0.047,-0.0546,-0.0591,-0.0645,-0.0739,-0.0785,-0.0859,-0.0983,-0.0971,-0.1065,-0.1144,-0.1151,-0.1188,-0.1277,-0.1243,-0.1174,-0.1276,-0.1269,-0.1269,-0.1269,0,-0.048,-0.0413,-0.0347,-0.034,-0.0353,-0.033,-0.0345,-0.0406,-0.0421,-0.0488,-0.0514,-0.0605,-0.0665,-0.0782,-0.0958,-0.0975,-0.1105,-0.1161,-0.1245,-0.1248,-0.12,-0.1199,-0.1235,-0.1219,-0.1219,-0.1218,-0.1218,0,-0.0333,-0.0267,-0.0285,-0.025,-0.0183,-0.0228,-0.0192,-0.0228,-0.0283,-0.0293,-0.0417,-0.0445,-0.0649,-0.0769,-0.0918,-0.1081,-0.108,-0.1205,-0.1257,-0.1159,-0.1153,-0.1279,-0.1393,-0.1222,-0.1221,-0.122,-0.122,0,-0.0207,-0.0209,-0.014,-0.0134,-0.0126,-0.009,-0.011,-0.0099,-0.0157,-0.0175,-0.0193,-0.0336,-0.0487,-0.069,-0.0897,-0.1028,-0.124,-0.124,-0.1113,-0.1147,-0.1315,-0.1427,-0.1529,-0.1595,-0.134,-0.1341,-0.1341,0,-0.0146,-0.0097,-0.0066,-0.0038,-0.0032,-0.0,0.0017,-0.0029,-0.0035,-0.0106,-0.0107,-0.0249,-0.033,-0.0634,-0.0879,-0.112,-0.1253,-0.1186,-0.1185,-0.128,-0.1445,-0.1493,-0.1546,-0.1089,-0.1087,-0.1085,-0.1084,0,-0.0046,-0.0038,-0.0007,0.0047,0.0085,0.0125,0.0137,0.016,0.0103,0.01,0.0066,0.0009,-0.0278,-0.0455,-0.0783,-0.0968,-0.1234,-0.1166,-0.1287,-0.1253,-0.1284,-0.1387,-0.1097,-0.1071,-0.1073,-0.1074,-0.1074,-0.1075,0.0008,0.0042,0.0069,0.0123,0.0171,0.0239,0.0288,0.0314,0.0349,0.0392,0.0279,0.033,0.0021,-0.0406,-0.0731,-0.1116,-0.1192,-0.1183,-0.1315,-0.1356,-0.1393,-0.1074,-0.1099,-0.11,-0.1101,-0.1102,-0.1103,0,0.0059,0.0088,0.0138,0.02,0.0268,0.0282,0.0357,0.0429,0.052,0.0637,0.0656,0.0687,0.0309,-0.0135,-0.0698,-0.1108,-0.128,-0.1336,-0.1359,-0.1415,-0.1125,-0.1083,-0.1075,-0.1075,-0.1075,-0.1075,-0.1075,-0.1074,0.0084,0.0131,0.0149,0.026,0.0321,0.043,0.0496,0.0634,0.076,0.1039,0.1232,0.1303,0.1045,-0.011,-0.0941,-0.1224,-0.1508,-0.1583,-0.1789,-0.1565,-0.1559,-0.1553,-0.1534,-0.1621,-0.1622,-0.1934,-0.1937,-0.194]}],[{"header":{"parameterUnit":"m.s-1","parameterCategory":2,"la1":30.2991,"la2":30.254,"lo1":-89.0895,"lo2":-89.0444,"dy":0.0017,"dx":0.0017,"nx":28,"ny":28,"refTime":"2024-06-29T09:00:00:Z","depth":"2","parameterNumber":2,"parameterNumberName":"U-component_of_CURRENTS"},"data":[0,0,0,0,0,0,0,0,0,0,0,0,0,0,0,0,0,0,0,0,0,0,0,0,0,0,0,0,0,0,0,0,0,0,0,0,0,0,0,0,0,0,0,0,0,0,0,0,0,0,0,0,0,0,0,0,0,0,0.1991,0.1991,0,0.201,0.201,0.201,0.1907,0.1904,0.1902,0.1899,0.1867,0.1868,0.187,0,0,0,0,0,0,0,0,0,0,0,0,0,0.1832,0.1835,0.1991,0.1991,0.1992,0.201,0.201,0.201,0.1907,0.1904,0.1901,0.1898,0.1867,0.1868,0.187,0,0,0,0,0,0,0,0,0,0,0,0,0,0.1877,0.1836,0.199,0.1946,0.1943,0.201,0.201,0.201,0.1908,0.1904,0.19,0.1897,0.1866,0.1868,0.187,0.196,0,0,0.1877,0.1878,0,0,0,0,0,0,0,0,0.1874,0.1882,0.1952,0.195,0.1946,0.1956,0.1942,0.1992,0.1909,0.1916,0.1899,0.1895,0.1898,0.1898,0.1903,0.1958,0.1957,0.1877,0.1879,0.188,0.188,0,0,0,0,0,0,0,0.1871,0.188,0.1993,0.1953,0.195,0.1915,0.1917,0.1951,0.1924,0.1915,0.1909,0.192,0.1895,0.1902,0.1902,0.1957,0.1877,0.1879,0.1881,0.1882,0.2024,0.2026,0,0,0,0,0,0,0.1886,0.1879,0.1993,0.1994,0.1905,0.1921,0.1923,0.1953,0.1924,0.1918,0.1923,0.1915,0.19,0.1899,0.19,0.1931,0.188,0.1882,0.1883,0.2021,0.2024,0.2027,0,0,0,0,0,0,0.1882,0.1896,0.1992,0.1939,0.1949,0.1929,0.1963,0.1955,0.1928,0.1932,0.1922,0.1899,0.1897,0.1897,0.1923,0.1931,0.1883,0.1885,0.2019,0.2022,0.2026,0.2039,0,0,0,0,0,0,0.1878,0.1896,0.1901,0.1941,0.1953,0.2006,0.1967,0.1959,0.1945,0.1933,0.191,0.1904,0.1894,0.192,0.1926,0.1933,0.1887,0.2015,0.202,0.2025,0.2036,0.2043,0.2049,0,0,0,0,0,0.1873,0.1882,0.1902,0.1915,0.1969,0.2007,0.2008,0.1977,0.1947,0.1937,0.1938,0.1903,0.1952,0.1925,0.193,0.1938,0.2013,0.2019,0.2024,0.2033,0.2042,0.2049,0,0,0,0,0,0,0.1784,0.1876,0.1896,0.1926,0.1961,0.199,0.1972,0.1975,0.197,0.1944,0.1942,0.1939,0.1971,0.1969,0.1938,0.1999,0.1975,0.1982,0.198,0.1988,0.1995,0.2029,0.1888,0,0,0,0,0,0.1788,0.1825,0.1901,0.1914,0.1937,0.196,0.1965,0.1957,0.1972,0.196,0.1955,0.1965,0.2011,0.2004,0.2037,0.2069,0.2131,0.208,0.2087,0.2092,0.2128,0.2268,0.2291,0.2045,0.2045,0.2045,0,0,0.175,0.1807,0.1821,0.19,0.1918,0.1962,0.1949,0.1951,0.1977,0.1966,0.197,0.1995,0.2033,0.207,0.2081,0.2054,0.2188,0.2099,0.2102,0.2137,0.2276,0.23,0.2322,0.2049,0.2048,0.2048,0,0,0.1716,0.1756,0.1791,0.1834,0.1887,0.1921,0.1925,0.1961,0.1956,0.199,0.2007,0.2053,0.2066,0.2122,0.215,0.2226,0.2236,0.2206,0.2243,0.2377,0.2399,0.2419,0.2495,0.2522,0.2187,0.2187,0.2187,0,0.1663,0.1749,0.1794,0.1845,0.189,0.1909,0.196,0.1973,0.2004,0.2052,0.1977,0.2109,0.2108,0.2241,0.2241,0.2241,0.2298,0.2197,0.2386,0.2408,0.2428,0.2502,0.2531,0.2189,0.2189,0.2188,0.2188,0,0.1691,0.1746,0.1759,0.1859,0.1899,0.1936,0.1997,0.2022,0.2019,0.2063,0.2159,0.218,0.2267,0.2259,0.2255,0.2409,0.2395,0.2393,0.2361,0.2453,0.2524,0.2555,0.2191,0.219,0.219,0.2189,0,0,0.1641,0.1762,0.1772,0.1832,0.1924,0.1964,0.2026,0.2139,0.2202,0.2207,0.2314,0.2371,0.2391,0.2431,0.2444,0.2523,0.2672,0.2495,0.2502,0.2562,0.2936,0.2901,0.2929,0.2696,0.2702,0.2707,0.2915,0,0.1665,0.1767,0.1832,0.1919,0.199,0.2055,0.2121,0.2207,0.226,0.235,0.2417,0.2497,0.2453,0.2479,0.257,0.2666,0.2759,0.2614,0.2848,0.2855,0.2806,0.2968,0.246,0.2603,0.2945,0.295,0.2954,0,0.1722,0.1787,0.1886,0.2009,0.2043,0.2084,0.2238,0.23,0.2446,0.2487,0.2601,0.2637,0.2781,0.2696,0.2938,0.2843,0.2904,0.2951,0.2961,0.2956,0.2879,0.2576,0.2645,0.3005,0.3001,0.2997,0.2994,0,0.1736,0.1845,0.1929,0.197,0.2091,0.2144,0.2205,0.2345,0.2418,0.2584,0.2642,0.2822,0.2889,0.3029,0.31,0.3038,0.3342,0.3277,0.3316,0.3311,0.2945,0.29,0.3481,0.348,0.348,0.3479,0.3479,0,0.1802,0.1865,0.1926,0.1977,0.2049,0.2141,0.2241,0.2335,0.2478,0.2586,0.2702,0.2808,0.2974,0.3132,0.3197,0.3364,0.3442,0.3385,0.34,0.2932,0.2885,0.3283,0.3258,0.3487,0.3485,0.3484,0.3483,0,0.1829,0.1884,0.1958,0.2044,0.2061,0.2107,0.2208,0.229,0.2431,0.2575,0.2624,0.2844,0.3061,0.3217,0.3454,0.3483,0.3639,0.3671,0.3087,0.3033,0.3484,0.3457,0.3765,0.3766,0.3767,0.3768,0.3769,0,0.1872,0.1908,0.1955,0.1966,0.1995,0.2057,0.2103,0.2242,0.2333,0.2585,0.2657,0.2905,0.3054,0.3397,0.3422,0.3577,0.3721,0.3295,0.3116,0.355,0.3533,0.3503,0.3475,0.2602,0.2593,0.2586,0.258,0,0.1909,0.1896,0.1931,0.1939,0.1963,0.2003,0.208,0.2142,0.2331,0.2462,0.2669,0.2804,0.3024,0.2965,0.317,0.3195,0.3231,0.3162,0.3803,0.2633,0.2478,0.2453,0.2459,0.2516,0.2522,0.2527,0.253,0.2533,0.1894,0.1885,0.1892,0.1895,0.1914,0.1941,0.1959,0.2066,0.2189,0.2294,0.2506,0.2547,0.2542,0.259,0.265,0.2706,0.2922,0.2798,0.2809,0.283,0.2684,0.2542,0.256,0.2567,0.2572,0.2577,0.2581,0,0.1857,0.184,0.185,0.1842,0.183,0.1858,0.1933,0.192,0.2008,0.2061,0.2142,0.191,0.1863,0.2001,0.1899,0.202,0.1901,0.205,0.1772,0.1831,0.1884,0.1683,0.1299,0.1298,0.1297,0.1296,0,0,0.1841,0.1807,0.1798,0.1749,0.1736,0.1693,0.1708,0.1687,0.1695,0.1628,0.155,0.1537,0.1714,0.137,0.1385,0.1341,0.1591,0.1305,0.2276,0.1984,0.2038,0.2213,0.1958,0,0,0,0,0]},{"header":{"parameterUnit":"m.s-1","parameterCategory":2,"la1":30.2991,"la2":30.254,"lo1":-89.0895,"lo2":-89.0444,"dy":0.0017,"dx":0.0017,"nx":28,"ny":28,"refTime":"2024-06-29T09:00:00:Z","depth":"2","parameterNumber":3,"parameterNumberName":"V-component_of_CURRENTS"},"data":[0,0,0,0,0,0,0,0,0,0,0,0,0,0,0,0,0,0,0,0,0,0,0,0,0,0,0,0,0,0,0,0,0,0,0,0,0,0,0,0,0,0,0,0,0,0,0,0,0,0,0,0,0,0,0,0,0,0,0.0624,0.0623,0,0.0506,0.0505,0.0503,0.0404,0.0403,0.0402,0.0401,0.0258,0.0255,0.0252,0,0,0,0,0,0,0,0,0,0,0,0,0,0.0692,0.0691,0.0624,0.0623,0.0622,0.0507,0.0505,0.0503,0.0404,0.0403,0.0402,0.04,0.0259,0.0255,0.0252,0,0,0,0,0,0,0,0,0,0,0,0,0,0.0626,0.0691,0.0625,0.056,0.0553,0.0507,0.0505,0.0503,0.0404,0.0403,0.0401,0.04,0.026,0.0256,0.0251,0.0252,0,0,0.0238,0.0236,0,0,0,0,0,0,0,0,0.063,0.0623,0.057,0.0564,0.0556,0.047,0.0476,0.0418,0.0404,0.0459,0.0401,0.0399,0.0328,0.0318,0.0297,0.0246,0.024,0.0237,0.0235,0.0233,0.0232,0,0,0,0,0,0,0,0.0635,0.0627,0.0576,0.0569,0.056,0.0512,0.0501,0.0464,0.0401,0.0454,0.0447,0.0437,0.0324,0.0302,0.0293,0.0237,0.0238,0.0234,0.0231,0.0229,0.0105,0.0105,0,0,0,0,0,0,0.0658,0.0632,0.058,0.0573,0.0592,0.0512,0.05,0.0498,0.0402,0.0387,0.0438,0.0433,0.031,0.0298,0.0288,0.0223,0.0233,0.0229,0.0226,0.0106,0.0105,0.0105,0,0,0,0,0,0,0.066,0.0655,0.0585,0.06,0.0588,0.0513,0.051,0.0496,0.0459,0.0391,0.0374,0.0415,0.0308,0.0294,0.0241,0.0219,0.0227,0.0223,0.0107,0.0106,0.0105,0.0132,0,0,0,0,0,0,0.0662,0.0656,0.0659,0.0603,0.0588,0.0558,0.0511,0.0495,0.0457,0.0448,0.0366,0.0351,0.0306,0.0248,0.0237,0.0213,0.0219,0.0108,0.0106,0.0105,0.0132,0.0132,0.0132,0,0,0,0,0,0.0665,0.0676,0.0661,0.0654,0.0596,0.0559,0.0547,0.0487,0.0457,0.0447,0.0385,0.0353,0.0232,0.0244,0.0231,0.0205,0.0108,0.0107,0.0105,0.0132,0.0132,0.0132,0,0,0,0,0,0,0.0686,0.0665,0.0647,0.0645,0.0607,0.0543,0.0528,0.0489,0.0432,0.0417,0.035,0.0332,0.0277,0.0243,0.0259,0.0166,0.0163,0.0159,0.0187,0.0187,0.0187,0.02,0.0216,0,0,0,0,0,0.0701,0.071,0.067,0.0662,0.0653,0.0591,0.0567,0.0526,0.0471,0.0443,0.038,0.0316,0.0264,0.0228,0.0181,0.0136,0.0121,0.0109,0.0109,0.011,0.0111,0.0078,0.0076,0.01,0.01,0.01,0,0,0.0693,0.0693,0.0687,0.0669,0.0635,0.0608,0.0572,0.0537,0.0496,0.0439,0.0364,0.0319,0.0255,0.0198,0.0169,0.0163,0.0096,0.0108,0.0109,0.011,0.0076,0.0074,0.0072,0.0099,0.0099,0.0099,0,0,0.0691,0.0698,0.07,0.0685,0.0654,0.062,0.0613,0.0547,0.0503,0.0439,0.0385,0.0333,0.0243,0.0193,0.0158,0.0134,0.0104,0.0112,0.0113,0.0081,0.0079,0.0077,0.0064,0.0061,0.0104,0.0104,0.0104,0,0.0672,0.0695,0.0688,0.0688,0.0681,0.0627,0.0615,0.056,0.0475,0.0456,0.0416,0.0298,0.0238,0.0181,0.0155,0.0134,0.0118,0.0119,0.0082,0.008,0.0078,0.0065,0.0061,0.0105,0.0105,0.0105,0.0105,0,0.067,0.0689,0.0692,0.0683,0.0666,0.0657,0.0598,0.0557,0.0502,0.0455,0.0389,0.0305,0.0237,0.0204,0.016,0.0112,0.0109,0.0095,0.0087,0.0077,0.0064,0.0059,0.0107,0.0106,0.0106,0.0106,0,0,0.063,0.0681,0.0681,0.0716,0.0679,0.0678,0.0612,0.0572,0.0566,0.0452,0.0436,0.0307,0.0272,0.0229,0.0171,0.0128,0.0086,0.0096,0.0094,0.0093,0.0027,0.0061,0.0059,0.0064,0.0063,0.0063,0.0029,0,0.063,0.0677,0.0678,0.0705,0.0737,0.0694,0.0658,0.0609,0.0562,0.0531,0.0429,0.0384,0.0276,0.0254,0.0182,0.0131,0.0073,0.0097,0.0028,0.0026,0.0065,0.0055,-0.002,-0.0053,0.0024,0.0023,0.0023,0,0.0639,0.0687,0.0729,0.0798,0.0802,0.079,0.0792,0.0752,0.0685,0.0648,0.0564,0.0488,0.0384,0.0308,0.0164,0.0185,0.0091,0.004,0.0038,0.0057,0.0052,-0.0035,-0.0065,0.0015,0.0015,0.0016,0.0017,0,0.0692,0.0737,0.0798,0.0812,0.084,0.0848,0.0843,0.0797,0.0805,0.073,0.0736,0.0586,0.0544,0.0386,0.0219,0.0192,0.01,0.0055,-0.0006,-0.0004,-0.0087,-0.0089,-0.0056,-0.0056,-0.0056,-0.0056,-0.0056,0,0.0742,0.0797,0.0842,0.0885,0.0954,0.0938,0.0992,0.0957,0.0945,0.0988,0.0809,0.0818,0.056,0.0458,0.0277,0.0136,0.0128,-0.0003,-0.0014,-0.0077,-0.0079,-0.0038,-0.0035,-0.0057,-0.0057,-0.0057,-0.0056,0,0.0811,0.0836,0.0923,0.0973,0.0996,0.1045,0.1102,0.1143,0.1109,0.116,0.1134,0.1005,0.0868,0.0624,0.0417,0.0252,0.0095,0.0038,-0.0008,-0.0024,-0.0006,-0.0002,-0.0035,-0.0034,-0.0033,-0.0033,-0.0032,0,0.0858,0.0911,0.0995,0.1047,0.1079,0.1152,0.1202,0.1212,0.127,0.1292,0.1334,0.1214,0.1153,0.0861,0.0513,0.0212,0.0162,-0.0021,-0.01,0.0002,-0.0006,-0.0002,0.0001,-0.0206,-0.0207,-0.0207,-0.0208,0,0.0938,0.0957,0.1018,0.1131,0.1209,0.1305,0.1391,0.1467,0.1494,0.155,0.1617,0.1582,0.1278,0.0911,0.0496,0.0299,0.0015,-0.004,0.0062,-0.0176,-0.0156,-0.0163,-0.0156,-0.0215,-0.0214,-0.0214,-0.0213,-0.0213,0.0969,0.1027,0.1098,0.1208,0.1306,0.1434,0.1526,0.1627,0.1749,0.177,0.1796,0.1653,0.1226,0.0615,0.0327,0.0008,0.0044,-0.0146,-0.0146,-0.0145,-0.0136,-0.0113,-0.0162,-0.0161,-0.016,-0.0159,-0.0159,0,0.0991,0.1065,0.1171,0.1298,0.1416,0.1463,0.1634,0.1715,0.187,0.1781,0.1801,0.1323,0.0941,0.0521,0.0024,-0.0211,-0.025,-0.0286,-0.0351,-0.0342,-0.0335,-0.0338,-0.0416,-0.0417,-0.0418,-0.0419,0,0,0.1001,0.1093,0.1163,0.1357,0.146,0.1627,0.1731,0.1846,0.1828,0.171,0.1502,0.1272,0.0834,0.0366,0.0033,-0.0198,-0.0196,-0.022,0.0002,-0.0029,-0.0019,-0.0248,-0.024,0,0,0,0,0]}],[{"header":{"parameterUnit":"m.s-1","parameterCategory":2,"la1":30.2991,"la2":30.254,"lo1":-89.0895,"lo2":-89.0444,"dy":0.0017,"dx":0.0017,"nx":28,"ny":28,"refTime":"2024-06-29T09:00:00:Z","depth":"4","parameterNumber":2,"parameterNumberName":"U-component_of_CURRENTS"},"data":[0,0,0,0,0,0,0,0,0,0,0,0,0,0,0,0,0,0,0,0,0,0,0,0,0,0,0,0,0,0,0,0,0,0,0,0,0,0,0,0,0,0,0,0,0,0,0,0,0,0,0,0,0,0,0,0,0,0,0.0726,0.0726,0,0.0803,0.0805,0.0807,0.0906,0.0907,0.0908,0.0909,0.108,0.1084,0.1088,0,0,0,0,0,0,0,0,0,0,0,0,0,0.0668,0.0669,0.0726,0.0726,0.0726,0.0803,0.0805,0.0807,0.0906,0.0907,0.0908,0.0909,0.1079,0.1083,0.1088,0,0,0,0,0,0,0,0,0,0,0,0,0,0.0722,0.0669,0.0725,0.0779,0.0784,0.0803,0.0805,0.0807,0.0906,0.0907,0.0909,0.091,0.1078,0.1083,0.1089,0.1098,0,0,0.1106,0.1108,0,0,0,0,0,0,0,0,0.0719,0.0725,0.0771,0.0775,0.078,0.0839,0.0847,0.0906,0.0906,0.0868,0.0909,0.091,0.1002,0.1014,0.1036,0.1106,0.1113,0.1106,0.111,0.1112,0.1114,0,0,0,0,0,0,0,0.0715,0.0722,0.0765,0.077,0.0776,0.0799,0.081,0.0859,0.0935,0.0872,0.0877,0.0872,0.1007,0.103,0.1041,0.1116,0.1106,0.1111,0.1115,0.1117,0.1326,0.1328,0,0,0,0,0,0,0.0687,0.0718,0.0762,0.0766,0.0742,0.0799,0.0811,0.0826,0.0933,0.0947,0.0871,0.0876,0.102,0.1034,0.1048,0.1178,0.1112,0.1118,0.1121,0.1324,0.1327,0.1329,0,0,0,0,0,0,0.0686,0.0691,0.0759,0.0736,0.0746,0.0798,0.0815,0.0826,0.091,0.0929,0.0948,0.0948,0.1022,0.104,0.1145,0.1181,0.112,0.1125,0.1321,0.1325,0.1328,0.1367,0,0,0,0,0,0,0.0684,0.0691,0.0712,0.0735,0.0745,0.0798,0.0813,0.0827,0.0897,0.0907,0.1,0.1014,0.1024,0.1136,0.115,0.1188,0.113,0.1319,0.1323,0.1327,0.1363,0.1371,0.1378,0,0,0,0,0,0.0682,0.0706,0.0714,0.0719,0.0768,0.0798,0.0809,0.0853,0.09,0.0937,0.1013,0.1014,0.1171,0.1143,0.1159,0.1199,0.1317,0.1322,0.1326,0.136,0.137,0.1378,0,0,0,0,0,0,0.0697,0.0718,0.0727,0.0759,0.0784,0.0813,0.0848,0.089,0.098,0.1012,0.1053,0.1072,0.1166,0.1188,0.1156,0.1271,0.124,0.1248,0.126,0.127,0.1277,0.1284,0.1134,0,0,0,0,0,0.0703,0.073,0.0746,0.0774,0.079,0.0835,0.0864,0.0899,0.0961,0.1006,0.1087,0.1154,0.1187,0.1237,0.1277,0.1359,0.134,0.1393,0.14,0.1406,0.1424,0.1402,0.1408,0.1345,0.1345,0.1345,0,0,0.0714,0.0727,0.0745,0.0778,0.0808,0.0846,0.0861,0.0919,0.099,0.1008,0.1171,0.119,0.1214,0.1289,0.1334,0.1324,0.1417,0.1413,0.1417,0.1432,0.1408,0.1413,0.1418,0.1348,0.1348,0.1347,0,0,0.0734,0.0767,0.0793,0.0822,0.0862,0.0888,0.0919,0.0998,0.1078,0.121,0.1213,0.1258,0.1395,0.1373,0.1383,0.1463,0.1449,0.1495,0.1554,0.1533,0.1537,0.154,0.1524,0.1525,0.1509,0.1509,0.1509,0,0.0746,0.0785,0.0806,0.0839,0.0875,0.0917,0.0968,0.1042,0.1164,0.123,0.1283,0.1406,0.1421,0.1435,0.1465,0.1475,0.1478,0.151,0.1539,0.1542,0.1545,0.1527,0.1528,0.1511,0.1511,0.1511,0.1511,0,0.0766,0.0825,0.0848,0.0905,0.0947,0.1,0.1076,0.1168,0.1286,0.1359,0.1473,0.1493,0.1556,0.1555,0.1551,0.1566,0.1565,0.1536,0.1506,0.1553,0.1532,0.1533,0.1515,0.1514,0.1513,0.1513,0,0,0.0763,0.0842,0.0878,0.0918,0.0997,0.1039,0.1148,0.125,0.1331,0.1476,0.1575,0.1627,0.165,0.1659,0.1628,0.1618,0.1625,0.1614,0.1612,0.1582,0.1604,0.1477,0.1465,0.1614,0.1614,0.1615,0.1581,0,0.079,0.0862,0.0914,0.1024,0.1059,0.1136,0.1235,0.1336,0.1445,0.1557,0.1593,0.1683,0.1686,0.1709,0.17,0.1641,0.1632,0.1638,0.1579,0.1577,0.1443,0.1462,0.1616,0.1581,0.1581,0.1581,0.1581,0,0.0809,0.0859,0.0964,0.1076,0.111,0.1214,0.135,0.1437,0.1556,0.1642,0.1713,0.1752,0.1771,0.176,0.1724,0.1744,0.1698,0.1648,0.1645,0.1515,0.145,0.1527,0.1581,0.1581,0.1581,0.1581,0.1581,0,0.0786,0.091,0.1005,0.1047,0.1172,0.1288,0.1382,0.1503,0.1574,0.1701,0.1752,0.1798,0.1834,0.1798,0.1727,0.1754,0.1651,0.1657,0.1492,0.1483,0.1589,0.1585,0.1618,0.1618,0.1618,0.1618,0.1618,0,0.0776,0.086,0.1036,0.1096,0.1236,0.1333,0.1478,0.1568,0.1666,0.1703,0.1815,0.1786,0.1856,0.1803,0.1736,0.1605,0.1662,0.1506,0.1462,0.1608,0.1608,0.1588,0.1585,0.1617,0.1617,0.1617,0.1617,0,0.0714,0.0829,0.0942,0.1147,0.1233,0.1348,0.1533,0.1578,0.1713,0.1744,0.1792,0.1827,0.1753,0.1741,0.1646,0.1605,0.148,0.1402,0.1555,0.152,0.1341,0.1341,0.1277,0.1272,0.1268,0.1264,0.1261,0,0.068,0.0737,0.0978,0.1077,0.1208,0.1378,0.1454,0.16,0.1608,0.1688,0.1653,0.1666,0.1652,0.1419,0.1424,0.1322,0.1285,0.1291,0.1346,0.134,0.1305,0.1312,0.1317,0.1255,0.1254,0.1253,0.1252,0,0.0607,0.0727,0.0818,0.0999,0.1157,0.1255,0.1389,0.1356,0.1452,0.1601,0.1478,0.1449,0.1349,0.1275,0.1222,0.1126,0.1343,0.1249,0.1259,0.131,0.1313,0.1284,0.1294,0.1237,0.1239,0.1241,0.1242,0,0.0569,0.0609,0.0753,0.0899,0.106,0.1102,0.1164,0.1164,0.1192,0.1287,0.1203,0.1189,0.1257,0.116,0.1052,0.1018,0.1033,0.1069,0.1089,0.1105,0.1068,0.1047,0.085,0,0,0,0,0,0.0527,0.0546,0.0641,0.0784,0.0912,0.1025,0.1092,0.1118,0.1182,0.1061,0.1149,0.1027,0.0963,0.0929,0.0855,0.0973,0.1026,0.0892,0.1074,0.1159,0.1175,0.1149,0,0,0,0,0,0,0.0502,0.0563,0.0578,0.0647,0.0733,0.0839,0.0878,0.091,0.0832,0.0923,0.0837,0.1032,0.0912,0.0993,0.0857,0.0865,0.0974,0.0932,0.0931,0.1149,0.1164,0.1177,0.1156,0,0,0,0,0]},{"header":{"parameterUnit":"m.s-1","parameterCategory":2,"la1":30.2991,"la2":30.254,"lo1":-89.0895,"lo2":-89.0444,"dy":0.0017,"dx":0.0017,"nx":28,"ny":28,"refTime":"2024-06-29T09:00:00:Z","depth":"4","parameterNumber":3,"parameterNumberName":"V-component_of_CURRENTS"},"data":[0,0,0,0,0,0,0,0,0,0,0,0,0,0,0,0,0,0,0,0,0,0,0,0,0,0,0,0,0,0,0,0,0,0,0,0,0,0,0,0,0,0,0,0,0,0,0,0,0,0,0,0,0,0,0,0,0,0,-0.0133,-0.0133,0,-0.0172,-0.0172,-0.0173,-0.0195,-0.0194,-0.0194,-0.0194,-0.0261,-0.0263,-0.0265,0,0,0,0,0,0,0,0,0,0,0,0,0,-0.0118,-0.0118,-0.0133,-0.0133,-0.0134,-0.0172,-0.0173,-0.0173,-0.0195,-0.0194,-0.0194,-0.0194,-0.026,-0.0263,-0.0265,0,0,0,0,0,0,0,0,0,0,0,0,0,-0.014,-0.0118,-0.0133,-0.0146,-0.0148,-0.0172,-0.0173,-0.0174,-0.0195,-0.0194,-0.0194,-0.0194,-0.026,-0.0262,-0.0265,-0.0291,0,0,-0.0275,-0.0276,0,0,0,0,0,0,0,0,-0.0139,-0.0141,-0.0144,-0.0146,-0.0147,-0.0175,-0.0191,-0.0213,-0.0195,-0.018,-0.0194,-0.0194,-0.0233,-0.0238,-0.025,-0.0294,-0.0297,-0.0275,-0.0277,-0.0278,-0.0279,0,0,0,0,0,0,0,-0.0137,-0.014,-0.0152,-0.0144,-0.0146,-0.0164,-0.0167,-0.0196,-0.0211,-0.0181,-0.0182,-0.0182,-0.0235,-0.0247,-0.0252,-0.0298,-0.0275,-0.0277,-0.0279,-0.028,-0.0366,-0.0367,0,0,0,0,0,0,-0.0124,-0.0138,-0.015,-0.0152,-0.0139,-0.0164,-0.0167,-0.0169,-0.021,-0.0215,-0.0182,-0.0183,-0.0242,-0.0249,-0.0255,-0.0274,-0.0278,-0.0281,-0.0282,-0.0366,-0.0366,-0.0367,0,0,0,0,0,0,-0.0124,-0.0125,-0.0149,-0.0144,-0.0147,-0.0164,-0.0166,-0.017,-0.0194,-0.021,-0.0216,-0.0203,-0.0242,-0.025,-0.0288,-0.0277,-0.0282,-0.0285,-0.0365,-0.0366,-0.0367,-0.0321,0,0,0,0,0,0,-0.0123,-0.0125,-0.0132,-0.0143,-0.0147,-0.0162,-0.0166,-0.0171,-0.0192,-0.0194,-0.023,-0.0235,-0.0243,-0.0284,-0.0291,-0.0281,-0.0287,-0.0364,-0.0365,-0.0366,-0.0322,-0.032,-0.0319,0,0,0,0,0,-0.0123,-0.012,-0.0132,-0.0134,-0.0153,-0.0162,-0.0166,-0.0179,-0.0193,-0.0202,-0.023,-0.0234,-0.0294,-0.0287,-0.0296,-0.0286,-0.0364,-0.0365,-0.0366,-0.0323,-0.0321,-0.0319,0,0,0,0,0,0,-0.0116,-0.0123,-0.0135,-0.0136,-0.0151,-0.0164,-0.017,-0.0189,-0.022,-0.0223,-0.0249,-0.0257,-0.0283,-0.0301,-0.0293,-0.0316,-0.0327,-0.033,-0.0291,-0.0289,-0.0288,-0.0271,-0.029,0,0,0,0,0,-0.0119,-0.0118,-0.0133,-0.0134,-0.0141,-0.0164,-0.0175,-0.0183,-0.0205,-0.0219,-0.0249,-0.0276,-0.0294,-0.0305,-0.0329,-0.0349,-0.0367,-0.0348,-0.0346,-0.0345,-0.0338,-0.0369,-0.0369,-0.037,-0.037,-0.037,0,0,-0.0113,-0.0119,-0.0117,-0.0133,-0.0146,-0.0138,-0.017,-0.0179,-0.0177,-0.0222,-0.0243,-0.0279,-0.0302,-0.0316,-0.0328,-0.0329,-0.0353,-0.0346,-0.0344,-0.0339,-0.037,-0.037,-0.037,-0.0371,-0.0371,-0.0371,0,0,-0.0083,-0.0111,-0.0093,-0.0104,-0.0118,-0.013,-0.0136,-0.0163,-0.0182,-0.0208,-0.0235,-0.0271,-0.0305,-0.0316,-0.0324,-0.0334,-0.0348,-0.034,-0.031,-0.034,-0.034,-0.034,-0.0352,-0.0354,-0.0332,-0.0332,-0.0332,0,-0.0064,-0.0063,-0.0091,-0.0077,-0.0083,-0.0123,-0.0109,-0.0127,-0.0166,-0.019,-0.0205,-0.0272,-0.0298,-0.0309,-0.0305,-0.0328,-0.0343,-0.0311,-0.0336,-0.0337,-0.0337,-0.035,-0.0352,-0.033,-0.033,-0.0331,-0.0331,0,-0.002,-0.0025,-0.0017,-0.0011,-0.0022,-0.0022,-0.0045,-0.0069,-0.0105,-0.0133,-0.018,-0.0225,-0.0257,-0.0274,-0.0288,-0.0304,-0.0312,-0.0334,-0.0335,-0.0334,-0.0348,-0.0351,-0.0327,-0.0328,-0.0329,-0.0329,0,0,0.0048,0.0024,0.0028,0.0015,0.0005,-0.0004,0.0002,-0.0024,-0.0039,-0.0087,-0.0115,-0.0154,-0.0197,-0.021,-0.0244,-0.0274,-0.0291,-0.0298,-0.0301,-0.0298,-0.0344,-0.0327,-0.0329,-0.0317,-0.0317,-0.0318,-0.0348,0,0.0094,0.0117,0.0098,0.0105,0.0098,0.0064,0.0063,0.0033,-0.0004,-0.0044,-0.0101,-0.0133,-0.0163,-0.0181,-0.0214,-0.0285,-0.0299,-0.028,-0.0356,-0.0358,-0.0333,-0.0332,-0.0319,-0.035,-0.0351,-0.0351,-0.0352,0,0.0136,0.0139,0.0155,0.0118,0.0114,0.012,0.0084,0.008,0.0031,0.0,-0.0036,-0.0078,-0.0122,-0.0152,-0.0239,-0.0226,-0.0268,-0.0321,-0.0324,-0.0325,-0.0347,-0.0356,-0.0358,-0.0357,-0.0357,-0.0356,-0.0356,0,0.0153,0.0164,0.0166,0.0161,0.0136,0.0129,0.0117,0.0081,0.0075,0.0031,0.0024,-0.0042,-0.0066,-0.0143,-0.0219,-0.0232,-0.0321,-0.0354,-0.0373,-0.0372,-0.0397,-0.0397,-0.0398,-0.0398,-0.0398,-0.0398,-0.0398,0,0.0175,0.017,0.0168,0.0162,0.0159,0.0134,0.0128,0.0108,0.0093,0.0098,0.0048,0.0041,-0.0065,-0.0118,-0.0205,-0.0287,-0.0298,-0.0362,-0.038,-0.0377,-0.0375,-0.0399,-0.0398,-0.0399,-0.0399,-0.0399,-0.0399,0,0.0164,0.0168,0.0162,0.0157,0.0156,0.0146,0.0153,0.0157,0.014,0.0154,0.0156,0.0103,0.0021,-0.0074,-0.02,-0.025,-0.0348,-0.0365,-0.0332,-0.0348,-0.0384,-0.0381,-0.0407,-0.0407,-0.0407,-0.0406,-0.0406,0,0.015,0.015,0.0164,0.0175,0.017,0.0169,0.0182,0.0177,0.0207,0.0196,0.0216,0.015,0.0107,-0.0062,-0.0175,-0.0322,-0.0339,-0.0361,-0.0396,-0.0371,-0.0386,-0.0383,-0.0381,-0.0406,-0.0406,-0.0406,-0.0405,0,0.0126,0.0139,0.0146,0.0186,0.0201,0.0222,0.025,0.0269,0.0284,0.0291,0.0266,0.0181,0.0089,-0.0059,-0.015,-0.0262,-0.0344,-0.0359,-0.0361,-0.0394,-0.037,-0.0384,-0.0382,-0.0405,-0.0405,-0.0405,-0.0405,0,0.0117,0.0122,0.0159,0.0187,0.0231,0.0263,0.0261,0.0296,0.031,0.0321,0.0312,0.019,0.0137,-0.0026,-0.0124,-0.0221,-0.0264,-0.0285,-0.0292,-0.0294,-0.0257,-0.0209,-0.0203,0,0,0,0,0,0.0117,0.0131,0.016,0.0194,0.0254,0.0278,0.0319,0.0325,0.0354,0.035,0.0333,0.0244,0.0078,-0.0008,-0.0108,-0.014,-0.0286,-0.0257,-0.0314,-0.0399,-0.04,-0.0375,0,0,0,0,0,0,0.0109,0.0143,0.0156,0.0221,0.0254,0.0308,0.0329,0.0335,0.0335,0.0345,0.0243,0.0241,0.006,0.0132,-0.0106,-0.0134,-0.0178,-0.0326,-0.0328,-0.0399,-0.04,-0.04,-0.0375,0,0,0,0,0]}]]